Tracking 17155 objects as of 30-July-2015
HD Live streaming from Space Station

GALAXY 14

Track GALAXY 14 now!
GALAXY 14 is classified as:


NORAD ID: 28790
Int'l Code: 2005-030A
Perigee: 35,782.2 km
Apogee: 35,805.2 km
Inclination: 0.0 °
Period: 1,436.1 minutes
Semi major axis: 42164 km
RCS: 19.9526 m2 (large)
Launch date: August 13, 2005
Source: United States (US)

24 C-band transponders; North America, Caribbean.
Your satellite tracking list
Your tracking list is empty





NASA's NSSDC Master Catalog

Two Line Element Set (TLE):
1 28790U 05030A   15210.49033236  .00000028  00000-0  00000+0 0  9992
2 28790 000.0398 293.6009 0002731 190.4183 234.3076 01.00271891 36447

Source of the keplerian elements: AFSPC

N2YO: 297